TimeCDT,TemperatureF,Dew PointF,Humidity,Sea Level PressureIn,VisibilityMPH,Wind Direction,Wind SpeedMPH,Gust SpeedMPH,PrecipitationIn,Events,Conditions,WindDirDegrees,DateUTC
12:15 AM,63.5,61.3,93,29.89,10.0,South,8.1,-,N/A,,Clear,170,2012-10-24 05:15:00
12:35 AM,62.6,60.8,94,29.90,10.0,South,4.6,-,N/A,,Clear,170,2012-10-24 05:35:00
12:55 AM,62.1,60.8,96,29.90,10.0,South,5.8,-,N/A,,Clear,170,2012-10-24 05:55:00
1:15 AM,63.5,61.3,93,29.90,10.0,South,8.1,-,N/A,,Clear,170,2012-10-24 06:15:00
1:35 AM,63.5,61.2,92,29.89,10.0,SSE,8.1,-,N/A,,Clear,160,2012-10-24 06:35:00
1:55 AM,63.7,61.0,91,29.89,10.0,South,8.1,-,N/A,,Clear,170,2012-10-24 06:55:00
2:15 AM,63.7,60.6,90,29.90,10.0,South,9.2,-,N/A,,Clear,170,2012-10-24 07:15:00
2:35 AM,63.5,60.3,89,29.90,10.0,South,9.2,-,N/A,,Clear,170,2012-10-24 07:35:00
2:55 AM,63.9,60.3,88,29.89,10.0,South,9.2,-,N/A,,Clear,180,2012-10-24 07:55:00
3:15 AM,64.4,59.9,85,29.89,10.0,South,10.4,-,N/A,,Clear,180,2012-10-24 08:15:00
3:35 AM,64.8,59.7,84,29.89,10.0,South,10.4,-,N/A,,Clear,180,2012-10-24 08:35:00
3:55 AM,64.4,59.5,84,29.89,10.0,South,9.2,-,N/A,,Scattered Clouds,180,2012-10-24 08:55:00
4:15 AM,64.6,59.4,83,29.89,10.0,South,9.2,-,N/A,,Scattered Clouds,180,2012-10-24 09:15:00
4:35 AM,64.4,59.5,84,29.90,10.0,South,8.1,-,N/A,,Mostly Cloudy,180,2012-10-24 09:35:00
4:55 AM,64.4,59.4,84,29.90,10.0,South,6.9,-,N/A,,Mostly Cloudy,180,2012-10-24 09:55:00
5:15 AM,63.9,59.4,85,29.90,10.0,South,8.1,-,N/A,,Scattered Clouds,180,2012-10-24 10:15:00
5:35 AM,64.4,59.4,84,29.92,10.0,South,8.1,-,N/A,,Mostly Cloudy,180,2012-10-24 10:35:00
5:55 AM,64.8,59.9,84,29.92,10.0,South,9.2,-,N/A,,Overcast,180,2012-10-24 10:55:00
6:15 AM,64.2,59.5,85,29.92,10.0,South,8.1,-,N/A,,Scattered Clouds,190,2012-10-24 11:15:00
6:35 AM,64.2,59.9,86,29.93,10.0,South,9.2,-,N/A,,Scattered Clouds,170,2012-10-24 11:35:00
6:55 AM,64.0,59.9,86,29.93,10.0,South,9.2,-,N/A,,Clear,170,2012-10-24 11:55:00
7:15 AM,63.9,59.9,87,29.92,10.0,South,9.2,-,N/A,,Clear,170,2012-10-24 12:15:00
7:35 AM,63.7,60.1,88,29.93,10.0,South,9.2,-,N/A,,Clear,180,2012-10-24 12:35:00
7:55 AM,64.0,60.3,87,29.93,10.0,South,11.5,-,N/A,,Clear,180,2012-10-24 12:55:00
8:15 AM,64.6,60.8,88,29.93,10.0,South,10.4,-,N/A,,Scattered Clouds,180,2012-10-24 13:15:00
8:35 AM,66.2,61.2,84,29.92,10.0,South,12.7,-,N/A,,Clear,180,2012-10-24 13:35:00
8:55 AM,67.3,61.7,82,29.93,10.0,South,11.5,-,N/A,,Clear,180,2012-10-24 13:55:00
9:15 AM,68.4,61.9,80,29.93,10.0,South,11.5,-,N/A,,Clear,190,2012-10-24 14:15:00
9:55 AM,72.5,62.6,71,29.93,10.0,SSW,13.8,-,N/A,,Clear,210,2012-10-24 14:55:00
10:15 AM,73.8,63.1,69,29.93,10.0,SSW,13.8,17.3,N/A,,Clear,210,2012-10-24 15:15:00
10:35 AM,75.2,62.6,65,29.93,10.0,SSW,16.1,-,N/A,,Clear,210,2012-10-24 15:35:00
10:55 AM,75.4,63.0,65,29.92,10.0,SSW,13.8,19.6,N/A,,Clear,210,2012-10-24 15:55:00
11:15 AM,76.5,63.7,64,29.92,10.0,SSW,12.7,19.6,N/A,,Clear,210,2012-10-24 16:15:00
11:35 AM,76.8,63.7,64,29.92,10.0,SSW,16.1,-,N/A,,Clear,210,2012-10-24 16:35:00
11:55 AM,77.9,64.2,63,29.92,10.0,SSW,10.4,-,N/A,,Clear,200,2012-10-24 16:55:00
12:15 PM,78.3,64.0,61,29.90,10.0,South,10.4,16.1,N/A,,Clear,190,2012-10-24 17:15:00
12:35 PM,79.3,64.4,60,29.90,10.0,South,11.5,-,N/A,,Scattered Clouds,190,2012-10-24 17:35:00
12:55 PM,79.7,64.4,59,29.89,10.0,South,13.8,19.6,N/A,,Clear,190,2012-10-24 17:55:00
1:15 PM,80.6,64.4,58,29.88,10.0,South,12.7,-,N/A,,Clear,180,2012-10-24 18:15:00
1:35 PM,81.0,64.6,57,29.87,10.0,South,12.7,19.6,N/A,,Clear,170,2012-10-24 18:35:00
1:55 PM,81.1,64.4,57,29.87,10.0,SSE,13.8,18.4,N/A,,Clear,160,2012-10-24 18:55:00
2:15 PM,82.0,64.9,56,29.86,10.0,South,11.5,-,N/A,,Clear,190,2012-10-24 19:15:00
2:35 PM,82.4,64.9,55,29.85,10.0,South,13.8,20.7,N/A,,Clear,180,2012-10-24 19:35:00
2:55 PM,82.8,64.6,54,29.84,10.0,South,17.3,23.0,N/A,,Clear,170,2012-10-24 19:55:00
3:15 PM,83.3,64.9,54,29.84,10.0,South,15.0,19.6,N/A,,Scattered Clouds,190,2012-10-24 20:15:00
3:35 PM,81.5,65.3,58,29.84,10.0,South,11.5,-,N/A,,Clear,190,2012-10-24 20:35:00
3:55 PM,82.4,64.4,54,29.83,10.0,South,18.4,25.3,N/A,,Scattered Clouds,170,2012-10-24 20:55:00
4:15 PM,82.4,65.7,57,29.83,10.0,South,12.7,21.9,N/A,,Clear,180,2012-10-24 21:15:00
4:35 PM,81.0,64.4,57,29.83,10.0,South,16.1,21.9,N/A,,Scattered Clouds,190,2012-10-24 21:35:00
4:55 PM,81.3,64.8,57,29.84,10.0,South,12.7,18.4,N/A,,Scattered Clouds,180,2012-10-24 21:55:00
5:15 PM,80.1,64.6,59,29.84,10.0,South,13.8,-,N/A,,Clear,190,2012-10-24 22:15:00
5:35 PM,79.7,64.8,60,29.83,10.0,South,12.7,-,N/A,,Clear,180,2012-10-24 22:35:00
5:55 PM,79.2,64.8,61,29.83,10.0,South,12.7,-,N/A,,Clear,180,2012-10-24 22:55:00
6:15 PM,77.5,64.8,65,29.83,10.0,South,10.4,-,N/A,,Clear,170,2012-10-24 23:15:00
6:35 PM,75.7,64.8,69,29.83,10.0,South,10.4,-,N/A,,Clear,170,2012-10-24 23:35:00
6:55 PM,75.2,64.6,69,29.83,10.0,SSE,10.4,-,N/A,,Clear,160,2012-10-24 23:55:00
7:15 PM,74.3,64.6,72,29.83,10.0,SSE,10.4,-,N/A,,Clear,160,2012-10-25 00:15:00
7:35 PM,73.6,64.4,73,29.83,10.0,SSE,11.5,-,N/A,,Clear,160,2012-10-25 00:35:00
7:55 PM,73.4,64.4,73,29.83,10.0,SSE,11.5,-,N/A,,Clear,160,2012-10-25 00:55:00
8:15 PM,73.4,64.6,74,29.83,10.0,SSE,11.5,-,N/A,,Clear,160,2012-10-25 01:15:00
8:35 PM,73.0,64.4,74,29.83,10.0,SSE,12.7,-,N/A,,Clear,160,2012-10-25 01:35:00
9:15 PM,73.4,64.4,73,29.83,10.0,South,12.7,-,N/A,,Clear,170,2012-10-25 02:15:00
9:35 PM,72.7,63.1,72,29.83,10.0,South,12.7,-,N/A,,Clear,170,2012-10-25 02:35:00
9:55 PM,73.4,62.6,69,29.83,10.0,South,12.7,-,N/A,,Clear,180,2012-10-25 02:55:00
10:15 PM,72.1,62.6,72,29.83,10.0,South,12.7,-,N/A,,Clear,170,2012-10-25 03:15:00
10:35 PM,71.4,62.6,74,29.83,10.0,South,11.5,-,N/A,,Clear,180,2012-10-25 03:35:00
10:55 PM,70.9,62.4,75,29.83,10.0,South,10.4,-,N/A,,Clear,170,2012-10-25 03:55:00
11:15 PM,70.2,62.4,76,29.83,10.0,South,10.4,-,N/A,,Clear,170,2012-10-25 04:15:00
11:35 PM,69.8,62.2,77,29.82,10.0,South,10.4,-,N/A,,Clear,170,2012-10-25 04:35:00
11:55 PM,69.8,62.2,77,29.82,10.0,South,12.7,-,N/A,,Clear,170,2012-10-25 04:55:00